This is the latest recevied weather packets stored in our database for station/object YO3LAW-13. If no packets are shown the sender has not sent any weather packets the latest 10 day(s).
| Time | Temp. | Humidity | Pressure | Rain* | Wind** | Luminosity | Snow |
|---|---|---|---|---|---|---|---|
| 1778434439 | 19.44° C | 67% | 1003.2 hPa | 0 mm | - | - | - |
| 1778433839 | 19.44° C | 67% | 1003 hPa | 0 mm | - | - | - |
| 1778433239 | 19.44° C | 67% | 1003 hPa | 0 mm | - | - | - |
| 1778432639 | 19.44° C | 65% | 1002.8 hPa | 0 mm | - | - | - |
| 1778432039 | 19.44° C | 65% | 1003.1 hPa | 0 mm | - | - | - |
| 1778431439 | 20° C | 64% | 1003.2 hPa | 0 mm | - | - | - |
| 1778430839 | 20° C | 63% | 1003.2 hPa | 0 mm | - | - | - |
| 1778430239 | 20.56° C | 62% | 1003.1 hPa | 0 mm | - | - | - |
| 1778429639 | 20.56° C | 61% | 1003.1 hPa | 0 mm | - | - | - |
| 1778429039 | 21.11° C | 60% | 1003.2 hPa | 0 mm | - | - | - |
| 1778428439 | 21.11° C | 59% | 1003.2 hPa | 0 mm | - | - | - |
| 1778427839 | 21.11° C | 61% | 1003.2 hPa | 0 mm | - | - | - |
| 1778427239 | 21.11° C | 60% | 1003.4 hPa | 0 mm | - | - | - |
| 1778426639 | 21.11° C | 60% | 1003.2 hPa | 0 mm | - | - | - |
| 1778426039 | 21.11° C | 62% | 1003.2 hPa | 0 mm | - | - | - |
| 1778425439 | 21.11° C | 60% | 1003.4 hPa | 0 mm | - | - | - |
| 1778424839 | 21.67° C | 59% | 1003.5 hPa | 0 mm | - | - | - |
| 1778424239 | 22.22° C | 58% | 1003.7 hPa | 0 mm | - | - | - |
| 1778423639 | 22.78° C | 54% | 1003.4 hPa | 0 mm | - | - | - |
| 1778423039 | 23.33° C | 53% | 1003.4 hPa | 0 mm | - | - | - |
| 1778422439 | 23.33° C | 52% | 1003.7 hPa | 0 mm | - | - | - |
| 1778421839 | 23.33° C | 55% | 1003.3 hPa | 0 mm | - | - | - |
| 1778421239 | 23.33° C | 54% | 1003.5 hPa | 0 mm | - | - | - |
| 1778420639 | 23.33° C | 54% | 1003.6 hPa | 0 mm | - | - | - |
| 1778420039 | 23.33° C | 54% | 1003.6 hPa | 0 mm | - | - | - |
* Rain latest hour (hover to see other rain measurements)
** Current wind speed in m/s (hover to see current wind gust speed)